Time,TemperatureF,DewpointF,PressureIn,WindDirection,WindDirectionDegrees,WindSpeedMPH,WindSpeedGustMPH,Humidity,HourlyPrecipIn,Conditions,Clouds,dailyrainin,SoftwareType,DateUTC
2013-09-07 00:04:00,72.8,73.0,30.00,NNW,332,9.0,11.0,99,0.00,,,0.00,weatherlink.com 1.10,2013-09-07 04:04:00,
2013-09-07 00:20:00,72.6,72.0,30.01,North,7,6.0,13.0,99,0.00,,,0.00,weatherlink.com 1.10,2013-09-07 04:20:00,
2013-09-07 00:35:00,72.5,72.0,30.00,NW,323,1.0,7.0,98,0.00,,,0.00,weatherlink.com 1.10,2013-09-07 04:35:00,
2013-09-07 00:50:00,72.2,72.0,30.00,NNE,31,1.0,3.0,98,0.00,,,0.00,weatherlink.com 1.10,2013-09-07 04:50:00,
2013-09-07 01:05:00,72.0,71.0,29.99,North,360,0.0,2.0,98,0.00,,,0.00,weatherlink.com 1.10,2013-09-07 05:05:00,
2013-09-07 01:20:00,71.6,71.0,29.99,North,360,1.0,1.0,98,0.00,,,0.00,weatherlink.com 1.10,2013-09-07 05:20:00,
2013-09-07 01:35:00,71.5,71.0,29.99,North,360,0.0,1.0,98,0.00,,,0.00,weatherlink.com 1.10,2013-09-07 05:35:00,
2013-09-07 01:50:00,71.3,71.0,29.99,NNW,342,0.0,0.0,98,0.00,,,0.00,weatherlink.com 1.10,2013-09-07 05:50:00,
2013-09-07 02:05:00,71.1,71.0,29.98,NNW,343,0.0,0.0,98,0.00,,,0.00,weatherlink.com 1.10,2013-09-07 06:05:00,
2013-09-07 02:20:00,71.0,71.0,29.98,NNW,343,0.0,0.0,99,0.00,,,0.00,weatherlink.com 1.10,2013-09-07 06:20:00,
2013-09-07 02:35:00,70.9,71.0,29.98,NNW,342,0.0,1.0,99,0.00,,,0.00,weatherlink.com 1.10,2013-09-07 06:35:00,
2013-09-07 02:50:00,70.9,71.0,29.97,NNW,342,0.0,3.0,99,0.00,,,0.00,weatherlink.com 1.10,2013-09-07 06:50:00,
2013-09-07 03:05:00,70.9,71.0,29.97,NNW,341,1.0,2.0,99,0.00,,,0.00,weatherlink.com 1.10,2013-09-07 07:05:00,
2013-09-07 03:20:00,70.9,71.0,29.97,North,7,0.0,2.0,99,0.00,,,0.00,weatherlink.com 1.10,2013-09-07 07:20:00,
2013-09-07 03:35:00,71.1,71.0,29.98,North,358,0.0,3.0,99,0.00,,,0.00,weatherlink.com 1.10,2013-09-07 07:35:00,
2013-09-07 03:50:00,71.1,71.0,29.98,NNW,336,1.0,2.0,99,0.00,,,0.00,weatherlink.com 1.10,2013-09-07 07:50:00,
2013-09-07 04:05:00,71.1,71.0,29.97,NNW,334,1.0,2.0,99,0.00,,,0.00,weatherlink.com 1.10,2013-09-07 08:05:00,
2013-09-07 04:20:00,71.1,71.0,29.97,NNW,339,0.0,3.0,99,0.00,,,0.00,weatherlink.com 1.10,2013-09-07 08:20:00,
2013-09-07 04:35:00,70.9,70.0,29.97,NNW,343,1.0,2.0,98,0.00,,,0.00,weatherlink.com 1.10,2013-09-07 08:35:00,
2013-09-07 04:50:00,70.8,71.0,29.96,NNW,339,0.0,1.0,99,0.00,,,0.00,weatherlink.com 1.10,2013-09-07 08:50:00,
2013-09-07 05:05:00,70.6,70.0,29.95,NNW,339,0.0,0.0,99,0.00,,,0.00,weatherlink.com 1.10,2013-09-07 09:05:00,
2013-09-07 05:20:00,70.3,70.0,29.95,NNW,339,0.0,0.0,99,0.00,,,0.00,weatherlink.com 1.10,2013-09-07 09:20:00,
2013-09-07 05:36:00,70.2,70.0,29.95,NNW,339,0.0,0.0,99,0.01,,,0.01,weatherlink.com 1.10,2013-09-07 09:36:00,
2013-09-07 05:51:00,70.1,70.0,29.96,NNW,337,0.0,1.0,99,0.01,,,0.01,weatherlink.com 1.10,2013-09-07 09:51:00,
2013-09-07 06:05:00,70.3,70.0,29.96,NW,317,1.0,1.0,99,0.01,,,0.01,weatherlink.com 1.10,2013-09-07 10:05:00,
2013-09-07 06:20:00,70.3,70.0,29.96,NW,326,1.0,2.0,99,0.01,,,0.01,weatherlink.com 1.10,2013-09-07 10:20:00,
2013-09-07 06:35:00,70.3,70.0,29.97,NW,324,0.0,2.0,99,0.00,,,0.01,weatherlink.com 1.10,2013-09-07 10:35:00,
2013-09-07 06:50:00,70.3,70.0,29.97,NNW,334,1.0,2.0,99,0.00,,,0.01,weatherlink.com 1.10,2013-09-07 10:50:00,
2013-09-07 07:05:00,70.4,70.0,29.97,NNW,329,0.0,2.0,99,0.00,,,0.01,weatherlink.com 1.10,2013-09-07 11:05:00,
2013-09-07 07:20:00,70.6,70.0,29.98,NNW,337,1.0,3.0,99,0.00,,,0.01,weatherlink.com 1.10,2013-09-07 11:20:00,
2013-09-07 07:35:00,70.7,70.0,29.98,North,350,2.0,2.0,99,0.00,,,0.01,weatherlink.com 1.10,2013-09-07 11:35:00,
2013-09-07 07:50:00,71.1,71.0,29.98,NNW,346,1.0,5.0,99,0.00,,,0.01,weatherlink.com 1.10,2013-09-07 11:50:00,
2013-09-07 08:05:00,71.7,71.0,29.98,NNE,18,2.0,4.0,99,0.00,,,0.01,weatherlink.com 1.10,2013-09-07 12:05:00,
2013-09-07 08:20:00,72.1,72.0,29.98,NNE,15,3.0,5.0,99,0.00,,,0.01,weatherlink.com 1.10,2013-09-07 12:20:00,
2013-09-07 08:35:00,72.7,72.0,29.98,North,9,2.0,6.0,99,0.00,,,0.01,weatherlink.com 1.10,2013-09-07 12:35:00,
2013-09-07 08:50:00,74.1,74.0,29.98,North,360,2.0,5.0,98,0.00,,,0.01,weatherlink.com 1.10,2013-09-07 12:50:00,
2013-09-07 09:05:00,75.0,74.0,29.98,NNW,341,2.0,5.0,96,0.00,,,0.01,weatherlink.com 1.10,2013-09-07 13:05:00,
2013-09-07 09:20:00,75.1,74.0,29.99,NE,39,5.0,6.0,95,0.00,,,0.01,weatherlink.com 1.10,2013-09-07 13:20:00,
2013-09-07 09:35:00,76.3,75.0,29.99,North,358,4.0,7.0,94,0.00,,,0.01,weatherlink.com 1.10,2013-09-07 13:35:00,
2013-09-07 09:50:00,76.9,75.0,30.00,North,8,3.0,6.0,92,0.00,,,0.01,weatherlink.com 1.10,2013-09-07 13:50:00,
2013-09-07 10:05:00,77.7,75.0,30.00,NNW,346,5.0,6.0,92,0.00,,,0.01,weatherlink.com 1.10,2013-09-07 14:05:00,
2013-09-07 10:20:00,77.8,75.0,30.01,ENE,62,3.0,6.0,90,0.00,,,0.01,weatherlink.com 1.10,2013-09-07 14:20:00,
2013-09-07 10:36:00,78.5,75.0,30.01,North,8,5.0,8.0,89,0.00,,,0.01,weatherlink.com 1.10,2013-09-07 14:36:00,
2013-09-07 10:51:00,78.9,76.0,30.01,NNE,33,5.0,7.0,90,0.00,,,0.01,weatherlink.com 1.10,2013-09-07 14:51:00,
2013-09-07 11:06:00,79.6,76.0,30.02,NNE,24,2.0,7.0,88,0.00,,,0.01,weatherlink.com 1.10,2013-09-07 15:06:00,
2013-09-07 11:21:00,80.4,76.0,30.02,NNW,345,1.0,6.0,86,0.00,,,0.01,weatherlink.com 1.10,2013-09-07 15:21:00,
2013-09-07 11:36:00,81.1,76.0,30.01,ENE,78,4.0,7.0,85,0.00,,,0.01,weatherlink.com 1.10,2013-09-07 15:36:00,
2013-09-07 11:51:00,82.8,77.0,30.01,NNW,336,0.0,6.0,83,0.00,,,0.01,weatherlink.com 1.10,2013-09-07 15:51:00,
2013-09-07 12:06:00,83.7,77.0,30.01,NE,43,4.0,5.0,79,0.00,,,0.01,weatherlink.com 1.10,2013-09-07 16:06:00,
2013-09-07 12:21:00,83.7,76.0,30.01,NNW,334,2.0,5.0,77,0.00,,,0.01,weatherlink.com 1.10,2013-09-07 16:21:00,
2013-09-07 12:36:00,85.4,76.0,30.00,ENE,74,3.0,6.0,74,0.00,,,0.01,weatherlink.com 1.10,2013-09-07 16:36:00,
2013-09-07 12:51:00,85.4,76.0,30.00,NNW,346,2.0,5.0,74,0.00,,,0.01,weatherlink.com 1.10,2013-09-07 16:51:00,
2013-09-07 13:07:00,86.0,77.0,30.00,East,97,2.0,7.0,75,0.00,,,0.01,weatherlink.com 1.10,2013-09-07 17:07:00,
2013-09-07 13:22:00,87.3,76.0,29.99,South,180,1.0,5.0,69,0.00,,,0.01,weatherlink.com 1.10,2013-09-07 17:22:00,
2013-09-07 13:37:00,87.2,75.0,29.99,NE,44,3.0,6.0,68,0.00,,,0.01,weatherlink.com 1.10,2013-09-07 17:37:00,
2013-09-07 13:52:00,88.0,76.0,29.98,North,4,2.0,5.0,67,0.00,,,0.01,weatherlink.com 1.10,2013-09-07 17:52:00,
2013-09-07 14:07:00,86.6,74.0,29.98,NNE,12,1.0,6.0,67,0.00,,,0.01,weatherlink.com 1.10,2013-09-07 18:07:00,
2013-09-07 14:22:00,87.0,75.0,29.97,NW,315,1.0,3.0,67,0.00,,,0.01,weatherlink.com 1.10,2013-09-07 18:22:00,
2013-09-07 14:37:00,86.4,74.0,29.96,North,9,3.0,6.0,66,0.00,,,0.01,weatherlink.com 1.10,2013-09-07 18:37:00,
2013-09-07 14:52:00,88.6,75.0,29.95,West,279,2.0,2.0,65,0.00,,,0.01,weatherlink.com 1.10,2013-09-07 18:52:00,
2013-09-07 15:07:00,87.6,74.0,29.94,NW,326,1.0,5.0,64,0.00,,,0.01,weatherlink.com 1.10,2013-09-07 19:07:00,
2013-09-07 15:22:00,88.5,73.0,29.94,North,8,2.0,5.0,61,0.00,,,0.01,weatherlink.com 1.10,2013-09-07 19:22:00,
2013-09-07 15:37:00,89.3,73.0,29.93,North,8,2.0,6.0,59,0.00,,,0.01,weatherlink.com 1.10,2013-09-07 19:37:00,
2013-09-07 15:52:00,89.2,73.0,29.93,West,273,3.0,4.0,60,0.00,,,0.01,weatherlink.com 1.10,2013-09-07 19:52:00,
2013-09-07 16:07:00,89.9,74.0,29.92,WNW,287,0.0,4.0,59,0.00,,,0.01,weatherlink.com 1.10,2013-09-07 20:07:00,
2013-09-07 16:22:00,90.2,74.0,29.92,NW,322,4.0,5.0,60,0.00,,,0.01,weatherlink.com 1.10,2013-09-07 20:22:00,
2013-09-07 16:37:00,89.7,74.0,29.90,North,2,3.0,5.0,60,0.00,,,0.01,weatherlink.com 1.10,2013-09-07 20:37:00,
2013-09-07 16:52:00,89.4,73.0,29.90,North,350,2.0,6.0,59,0.00,,,0.01,weatherlink.com 1.10,2013-09-07 20:52:00,
2013-09-07 17:07:00,89.5,73.0,29.90,North,7,5.0,7.0,59,0.00,,,0.01,weatherlink.com 1.10,2013-09-07 21:07:00,
2013-09-07 17:22:00,89.5,73.0,29.90,NNW,339,3.0,5.0,58,0.00,,,0.01,weatherlink.com 1.10,2013-09-07 21:22:00,
2013-09-07 17:37:00,89.3,74.0,29.90,NW,309,1.0,6.0,60,0.00,,,0.01,weatherlink.com 1.10,2013-09-07 21:37:00,
2013-09-07 17:52:00,88.3,75.0,29.90,NNW,334,6.0,8.0,65,0.00,,,0.01,weatherlink.com 1.10,2013-09-07 21:52:00,
2013-09-07 18:07:00,87.1,75.0,29.90,NW,326,2.0,7.0,67,0.00,,,0.01,weatherlink.com 1.10,2013-09-07 22:07:00,
2013-09-07 18:22:00,85.7,74.0,29.91,NW,317,2.0,5.0,68,0.00,,,0.01,weatherlink.com 1.10,2013-09-07 22:22:00,
2013-09-07 18:37:00,84.6,73.0,29.92,NNE,28,4.0,9.0,69,0.00,,,0.01,weatherlink.com 1.10,2013-09-07 22:37:00,
2013-09-07 18:52:00,83.3,73.0,29.92,North,2,1.0,7.0,71,0.00,,,0.01,weatherlink.com 1.10,2013-09-07 22:52:00,
2013-09-07 19:07:00,82.7,73.0,29.92,North,4,2.0,4.0,72,0.00,,,0.01,weatherlink.com 1.10,2013-09-07 23:07:00,
2013-09-07 19:22:00,82.4,72.0,29.93,NNE,27,5.0,9.0,71,0.00,,,0.01,weatherlink.com 1.10,2013-09-07 23:22:00,
2013-09-07 19:37:00,82.0,72.0,29.93,North,353,2.0,7.0,71,0.00,,,0.01,weatherlink.com 1.10,2013-09-07 23:37:00,
2013-09-07 19:52:00,81.2,72.0,29.94,North,8,1.0,7.0,73,0.00,,,0.01,weatherlink.com 1.10,2013-09-07 23:52:00,
2013-09-07 20:07:00,80.7,73.0,29.95,North,354,0.0,4.0,76,0.00,,,0.01,weatherlink.com 1.10,2013-09-08 00:07:00,
2013-09-07 20:22:00,80.2,73.0,29.95,SW,220,2.0,4.0,78,0.00,,,0.01,weatherlink.com 1.10,2013-09-08 00:22:00,
2013-09-07 20:37:00,79.1,74.0,29.96,ESE,109,1.0,5.0,83,0.00,,,0.01,weatherlink.com 1.10,2013-09-08 00:37:00,
2013-09-07 20:52:00,78.3,74.0,29.97,WSW,253,0.0,2.0,85,0.00,,,0.01,weatherlink.com 1.10,2013-09-08 00:52:00,
2013-09-07 21:07:00,77.4,73.0,29.98,WSW,256,2.0,7.0,87,0.00,,,0.01,weatherlink.com 1.10,2013-09-08 01:07:00,
2013-09-07 21:22:00,76.8,73.0,29.97,West,267,2.0,4.0,89,0.00,,,0.01,weatherlink.com 1.10,2013-09-08 01:22:00,
2013-09-07 21:37:00,76.1,73.0,29.97,WSW,246,0.0,2.0,89,0.00,,,0.01,weatherlink.com 1.10,2013-09-08 01:37:00,
2013-09-07 21:52:00,75.6,73.0,29.97,West,270,0.0,2.0,91,0.00,,,0.01,weatherlink.com 1.10,2013-09-08 01:52:00,
2013-09-07 22:07:00,75.1,72.0,29.97,West,270,0.0,1.0,91,0.00,,,0.01,weatherlink.com 1.10,2013-09-08 02:07:00,
2013-09-07 22:22:00,74.7,72.0,29.97,West,270,0.0,1.0,92,0.00,,,0.01,weatherlink.com 1.10,2013-09-08 02:22:00,
2013-09-07 22:37:00,74.4,72.0,29.97,West,270,0.0,1.0,93,0.00,,,0.01,weatherlink.com 1.10,2013-09-08 02:37:00,
2013-09-07 22:52:00,74.0,72.0,29.96,West,270,1.0,1.0,94,0.00,,,0.01,weatherlink.com 1.10,2013-09-08 02:52:00,
2013-09-07 23:07:00,73.7,72.0,29.96,West,270,0.0,1.0,95,0.00,,,0.01,weatherlink.com 1.10,2013-09-08 03:07:00,
2013-09-07 23:22:00,73.3,72.0,29.95,West,270,0.0,0.0,95,0.00,,,0.01,weatherlink.com 1.10,2013-09-08 03:22:00,
2013-09-07 23:37:00,73.1,72.0,29.96,West,270,0.0,1.0,96,0.00,,,0.01,weatherlink.com 1.10,2013-09-08 03:37:00,
2013-09-07 23:52:00,73.1,72.0,29.95,West,270,0.0,0.0,96,0.00,,,0.01,weatherlink.com 1.10,2013-09-08 03:52:00,